Location: Los Gatos B&B
(42.6926°N, 77.0646°W)
Time: 00:44:14
(UTC-04:00)

Daily predictions for brighter satellites

Satellite Brightness Start Highest point End
(mag) Time Altitude Azimuth Time Altitude Azimuth Time Altitude Azimuth
Terra 4.1 00:06:58 19° WNW 00:06:58 19° WNW 00:08:56 10° NW
Cosmos 2219 Rocket 4.4 00:23:49 16° NE 00:23:49 16° NE 00:24:57 10° NE
Cosmos 2263 Rocket 4.1 00:21:08 10° NW 00:23:33 22° WNW 00:23:33 22° WNW
Cosmos 2322 Rocket 4.2 00:29:50 20° WNW 00:30:59 21° NW 00:35:10 10° N
Cosmos 2333 Rocket 4.4 00:39:46 18° NE 00:39:46 18° NE 00:41:20 10° NE
Cosmos 2237 Rocket 4.5 00:41:33 16° NE 00:41:33 16° NE 00:42:50 10° NE
COSMOS 2428 4.3 00:55:04 31° N 00:55:04 31° N 00:58:01 10° NNE
ATLAS CENTAUR R/B 4.3 00:55:09 64° WSW 00:57:21 83° NW 01:24:54 10° NE
ATLAS 3B R/B 3.8 01:08:52 40° ENE 01:08:52 40° ENE 01:13:35 10° NE
Cosmos 2278 Rocket 3.8 01:06:28 10° NNW 01:09:22 31° NNW 01:09:22 31° NNW
CZ-2C R/B 4.2 01:35:05 10° N 01:38:09 34° N 01:38:09 34° N
Cosmos 2360 Rocket 4.5 01:43:12 16° NW 01:43:33 16° NW 01:46:57 10° N
Lacrosse 4 Rocket 4.5 01:46:01 13° NNW 01:46:01 13° NNW 01:47:01 10° N
CZ-4C R/B 4.2 01:48:42 21° ENE 01:48:42 21° ENE 01:50:57 10° NE
USA 238 DEB 4.4 02:01:31 47° ENE 02:01:31 47° ENE 02:06:40 10° NE
USA 238 4.4 02:01:38 47° ENE 02:01:38 47° ENE 02:06:46 10° NE
Cosmos 2219 Rocket 3.8 02:05:32 29° NNW 02:05:32 29° NNW 02:08:59 10° N
ATLAS CENTAUR R/B 4.3 02:06:58 10° N 02:09:37 15° NE 02:09:58 15° NE
SL-16 R/B 3.3 02:19:06 41° NNE 02:19:06 41° NNE 02:22:44 10° NNE
COSMOS 2455 3.9 02:19:04 38° NNW 02:19:04 38° NNW 02:23:33 10° NNE
Cosmos 2333 Rocket 3.6 02:21:46 31° NNW 02:21:46 31° NNW 02:25:40 10° N
Cosmos 2237 Rocket 3.6 02:23:22 33° NNW 02:23:22 33° NNW 02:27:08 10° NNE
BREEZE-M DEB (TANK) 4.1 02:40:47 69° ESE 02:40:47 69° ESE 02:45:04 10° ENE
Cosmos 1607 4.3 02:50:26 59° N 02:50:26 59° N 02:55:39 10° NNE
ATLAS 5 CENTAUR R/B 4.3 02:51:54 12° E 02:51:54 12° E 02:53:27 10° E
ATLAS 3B R/B 3.7 02:56:06 37° WNW 02:57:22 39° NW 03:04:13 10° NNE
Cosmos 1603 4.1 03:00:41 60° NE 03:00:41 60° NE 03:05:25 10° NNE
Meteor 2-3 Rocket 4.3 03:13:10 10° N 03:18:50 55° ENE 03:20:01 47° ESE
CZ-2D R/B 3.2 03:18:18 10° NNE 03:23:09 36° E 03:23:57 34° ESE
Okean O Rocket 4.5 03:22:51 10° ENE 03:24:02 11° E 03:25:13 10° ESE
CZ-3A R/B 4.2 03:21:46 26° WNW 03:24:24 35° NNW 03:28:26 10° NE
Cosmos 1726 4.1 03:30:26 27° NNE 03:30:26 27° NNE 03:32:14 10° N
Cosmos 1943 3.4 03:29:24 58° ESE 03:29:38 59° ESE 03:35:12 10° NNE
Spot 4 Rocket 4.1 03:25:01 10° NNE 03:29:55 73° ENE 03:29:55 73° ENE
IRS-1D 4.1 03:25:07 10° NNE 03:30:13 51° E 03:30:40 50° ESE
CZ-4C R/B 2.9 03:33:52 41° NW 03:34:06 42° NW 03:39:54 10° NNE
Cosmos 1300 4.5 03:40:07 27° N 03:40:07 27° N 03:42:01 10° N
Cosmos 1331 Rocket 3.9 03:33:32 10° NNW 03:38:47 84° NE 03:38:47 84° NE
ADEOS 3.5 03:34:11 10° NNE 03:39:13 80° NNW 03:39:13 80° NNW
Cosmos 2369 Rocket 2.2 03:34:20 10° NNW 03:39:58 78° ENE 03:41:29 50° SE
ARIANE 5 R/B 2.7 03:34:45 10° NNE 03:40:00 67° ESE 03:40:24 64° SE
NPP 4.2 03:36:12 10° N 03:40:49 44° NW 03:40:49 44° NW
USA 234 3.2 03:39:56 10° NE 03:46:31 75° SE 03:47:57 56° SSW
S3M 4.3 03:49:07 49° W 03:49:15 49° WNW 03:55:23 10° N
ATLAS CENTAUR R/B 3.6 03:45:01 10° NW 03:46:10 18° NW 03:46:10 18° NW
SeaSat 1 3.9 03:45:20 10° ESE 03:49:49 36° NE 03:54:20 10° N
Cosmos 1455 3.4 03:51:10 37° E 03:51:17 37° E 03:54:55 10° NNE
SL-16 R/B 2.4 03:52:07 43° S 03:54:21 85° WSW 04:00:36 10° NNW
Resurs 1-4 Rocket 2.1 03:52:18 10° NNE 03:57:36 77° ESE 03:58:42 56° S
Cosmos 2242 Rocket 3.6 03:59:17 79° SE 03:59:27 81° E 04:04:03 10° N
Cosmos 1271 Rocket 4.4 04:02:18 25° NNW 04:02:18 25° NNW 04:04:30 10° N
SL-16 R/B 4.1 04:00:59 16° WNW 04:01:56 17° NW 04:05:32 10° N
Cosmos 1943 Rocket 2.9 03:57:25 10° NNW 04:02:59 53° ENE 04:08:29 10° SE
NOSS 3-2 (A) 3.9 04:04:36 42° W 04:06:09 51° NW 04:12:42 10° NNE
Cosmos 2263 4.1 04:08:08 10° NNW 04:13:57 79° WSW 04:19:43 10° SSE
Cosmos 1709 Rocket 3.9 04:07:41 10° N 04:14:03 77° W 04:17:24 30° S
Cosmos 2251 Rocket 3.9 04:15:49 44° W 04:16:24 46° WNW 04:21:28 10° N
ERS-2 3.4 04:15:27 10° N 04:17:59 31° NW 04:17:59 31° NW
CENTAUR R/B 3.0 04:19:16 27° S 04:22:29 53° ESE 04:29:03 10° NE
NOSS 3-2 (C) 4.0 04:20:58 36° W 04:23:07 49° NW 04:29:41 10° NNE
Cosmos 1825 3.9 04:23:46 10° N 04:27:14 33° ENE 04:30:40 10° SE
UNK 4.2 04:28:05 41° W 04:28:05 41° W 04:32:07 10° NNW
BREEZE-M DEB (TANK) 3.1 04:28:25 39° ENE 04:28:25 39° ENE 04:30:13 10° E
SL-27 R/B 3.7 04:26:50 28° SSE 04:28:08 38° ESE 04:31:32 10° NE
MOZ.5/SAFIR/RUBIN 5/SL-8 4.2 04:24:25 10° SSE 04:28:57 62° ENE 04:33:33 10° N
Cosmos 1733 Rocket 2.9 04:26:00 10° N 04:30:23 79° W 04:32:11 35° S
Abrixas rocket 3.9 04:31:10 23° NW 04:32:26 30° N 04:35:27 10° ENE
ARGOS Delta rocket 3.7 04:28:42 10° NNE 04:33:08 75° ESE 04:35:21 29° S
ATLAS 5 CENTAUR R/B 1.8 04:33:28 43° SW 04:35:06 82° NW 04:40:23 10° NE
Cosmos 2074 Rocket 4.2 04:30:02 10° N 04:36:16 72° E 04:42:27 10° SSE
Cosmos 2184 Rocket 4.2 04:33:53 10° N 04:40:18 74° E 04:46:38 10° SSE
Cosmos 1862 4.0 04:36:51 10° N 04:40:46 54° E 04:44:38 10° SSE
EO 1 Del DPAF 3.8 04:43:01 40° W 04:43:01 40° W 04:46:27 10° NNW
UNKNOWN OBJECT B 3.0 04:40:20 10° N 04:43:53 45° WNW 04:44:16 43° W
MTI 4.0 04:45:27 51° W 04:45:27 51° W 04:48:34 10° NNW
PSLV R/B 3.2 04:47:17 56° SW 04:47:47 66° S 04:51:12 10° E
Cosmos 1869 3.4 04:50:13 38° SW 04:51:20 52° W 04:55:14 10° N
Cosmos 1892 4.2 04:52:18 10° NW 04:54:28 21° WNW 04:54:28 21° WNW
CZ-4B R/B 2.9 04:52:43 10° NNE 04:56:22 67° ESE 04:59:29 14° S
Cosmos 1933 3.4 04:55:34 16° S 04:58:45 85° E 05:02:53 10° N
Cosmos 1908 Rocket 3.5 04:54:43 10° N 04:59:08 86° W 05:03:29 10° S
Pageos (A) 4.0 04:57:04 10° NNW 04:58:25 33° NNW 04:58:25 33° NNW
BREEZE-M DEB (TANK) 4.2 04:59:15 21° S 05:00:23 30° SE 05:04:12 10° ENE
Okean O Rocket 1.6 04:56:27 10° N 05:00:55 73° WNW 05:04:08 18° SSW
CZ-2D R/B 4.0 04:56:57 10° N 05:01:09 44° WNW 05:03:05 27° SW
CZ-2D R/B 3.1 04:58:35 10° N 05:03:06 30° WNW 05:05:16 22° WSW
Cosmos 2221 Rocket 3.9 04:58:49 10° S 05:03:13 66° E 05:07:36 10° NNE
Okean-O 3.9 05:01:47 10° NNE 05:05:59 41° E 05:10:10 10° S
SL-08 ROCKET BODY 4.3 05:00:04 10° N 05:06:06 76° W 05:12:11 10° S
Atlas Centaur 2 4.0 05:08:32 10° S 05:10:03 11° SSE 05:11:41 10° SE
Cosmos 2285 Rocket 4.0 05:04:16 10° NNW 05:10:44 78° WSW 05:17:05 10° SSE
COSMOS 2406 3.2 05:08:57 14° SSW 05:14:03 85° WNW 05:19:51 10° NNE
Sich 1 Rocket 3.9 05:12:22 10° NNW 05:16:33 44° W 05:20:44 10° SSW
Cosmos 1703 Rocket 3.5 05:13:04 10° SSW 05:17:32 78° W 05:22:03 10° N
ARIANE 5 R/B 4.2 05:15:12 10° NNW 05:18:33 17° WNW 05:20:44 14° W
Cosmos 389 Rocket 3.4 05:17:29 23° WSW 05:18:45 29° WNW 05:21:53 10° NNW
Cosmos 1184 Rocket 4.4 05:20:02 10° NW 05:22:29 19° W 05:22:41 19° W
Cosmos 2369 Rocket 3.7 05:20:19 10° WNW 05:23:07 14° W 05:23:07 14° W
CZ-4C R/B 4.5 05:21:22 10° NW 05:24:31 14° NNW 05:27:52 10° NNE
CZ-4B DEB 4.2 05:20:23 10° N 05:25:50 66° WNW 05:31:13 10° SSW
Cosmos 1455 4.0 05:26:13 14° W 05:27:11 15° WNW 05:29:34 10° NNW
CZ-4B R/B 3.2 05:22:07 10° N 05:27:19 58° WNW 05:32:30 10° SSW
SeaSat 1 3.1 05:22:57 10° S 05:27:20 32° WSW 05:31:45 10° NW
USA 234 4.0 05:23:11 10° NE 05:29:15 42° NNW 05:35:17 10° W
Geosat 4.1 05:27:42 10° NNE 05:32:45 81° ESE 05:37:46 10° SSW
USA 129 0.9 05:35:23 38° WNW 05:35:23 38° WNW 05:36:30 10° NNW
Resurs 1-4 Rocket 3.8 05:33:47 10° NNW 05:36:47 16° WNW 05:39:46 10° W
PSLV R/B 3.6 05:33:04 10° N 05:37:28 81° WNW 05:41:51 10° SSW
SL-16 R/B 4.1 05:37:14 12° WSW 05:38:51 13° W 05:41:25 10° WNW
USA 116 4.3 05:34:18 10° SSE 05:39:04 83° WSW 05:44:20 10° NNW
COSMOS 2487 2.6 05:37:09 10° SSW 05:40:45 78° ESE 05:44:22 10° NNE
Meteor 2-10 Rocket 4.3 05:40:03 10° S 05:45:46 64° E 05:51:26 10° NNE
Cosmos 1943 Rocket 3.2 05:41:59 10° NW 05:46:19 23° W 05:50:37 10° SSW
MOS 1 Rocket 4.1 05:46:31 10° NNE 05:50:43 50° E 05:54:52 10° S
ADEOS II 2.1 05:46:33 10° N 05:51:50 77° WNW 05:57:04 10° SSW
Cosmos 1190 Rocket 4.1 05:47:46 10° SSW 05:52:53 61° WNW 05:58:03 10° NNE
Thor Agena Rocket 4.1 05:49:06 10° SSW 05:53:47 36° W 05:58:34 10° NNW
Okean 2 Rocket 3.4 05:49:48 10° NNW 05:54:07 46° W 05:58:25 10° SSW
Cosmos 1408 4.1 05:52:09 10° NW 05:54:53 19° W 05:57:36 10° SW
Okean 1-7 3.4 05:51:58 10° SSW 05:56:05 45° WNW 06:00:18 10° N
CZ-4B R/B 4.3 05:56:53 10° NNE 06:01:26 80° ESE 06:05:53 10° S
Aureole 3 Rocket 4.3 05:57:26 10° SSW 06:03:55 40° W 06:08:41 10° N
ADEOS Rocket 3.7 05:57:38 10° N 06:05:13 63° WNW 06:12:49 10° SSW
Centaur D-1A AC-31 3.4 06:00:47 10° WSW 06:05:28 16° SSW 06:08:12 10° SSE
